Weather History for Dumas, TX

Change the Weather History Date:

Wednesday, October 19, 2011

  Actual Average (KBGD) Record (KBGD)
Temperature  
Mean Temperature 48 °F 59 °F  
Max Temperature 62 °F 72 °F 92 °F (2009)
Min Temperature 35 °F 47 °F 26 °F (1989)
Degree Days  
Heating Degree Days 16 7  
Month to date heating degree days 89  
Since 1 July heating degree days 117  
Cooling Degree Days 0 1  
Month to date cooling degree days 43  
Year to date cooling degree days 1828  
Moisture  
Dew Point 26 °F    
Average Humidity 44    
Maximum Humidity 70    
Minimum Humidity 24    
Precipitation  
Precipitation 0.00 in 0.05 in 0.87 in (2002)
Month to date precipitation 1.19  
Year to date precipitation 19.58  
Snow  
Snow 0.00 in - - ()
Month to date snowfall  
Since 1 July snowfall  
Since 1 September snowfall  
Snow Depth -    
Sea Level Pressure  
Sea Level Pressure 30.19 in    
Wind  
Wind Speed 8 mph (WNW)    
Max Wind Speed 14 mph    
Max Gust Speed 21 mph    
Visibility 10 miles    
Events      
T = Trace of Precipitation, MM = Missing Value Source: NWS Daily Summary

Daily Weather History Graph

Daily Weather History Graph

Search for Another Location

Airport:

Trip Planner

Search our weather history database for the weather conditions in past years. The results will help you decide how hot, cold, wet, or windy it might be!

Date:

Astronomy

Oct. 19, 2011 Rise Set
Actual Time 7:58 AM CDT 7:07 PM CDT
Civil Twilight 7:32 AM CDT 7:33 PM CDT
Nautical Twilight 7:02 AM CDT 8:03 PM CDT
Astronomical Twilight 6:32 AM CDT 8:32 PM CDT
Moon No Moon Rise 2:25 PM CDT (10/19)
Length of Visible Light 12h 01m
Length of Day
11h 09m
Waning Gibbous, 54% of the Moon is Illuminated
Oct 19
Waning Gibbous
Oct 19
Last Quarter
Oct 26
New
Nov 2
First Quarter
Nov 10
Full

Hourly Weather History & Observations

Time (CDT) Temp. Windchill Dew Point Humidity Pressure Visibility Wind Dir Wind Speed Gust Speed Precip Events Conditions
12:15 AM 41.0 °F 37.1 °F 23.0 °F 49% 30.26 in 10.0 mi NW 5.8 mph - N/A   Clear
12:35 AM 39.2 °F 33.6 °F 23.0 °F 52% 30.25 in 10.0 mi NW 8.1 mph - N/A   Scattered Clouds
12:55 AM 39.2 °F 33.0 °F 24.8 °F 56% 30.25 in 10.0 mi NW 9.2 mph - N/A   Mostly Cloudy
1:15 AM 41.0 °F 36.4 °F 24.8 °F 53% 30.25 in 10.0 mi WNW 6.9 mph - N/A   Mostly Cloudy
1:35 AM 41.0 °F 35.2 °F 24.8 °F 53% 30.24 in 10.0 mi WNW 9.2 mph - N/A   Mostly Cloudy
1:55 AM 41.0 °F 35.2 °F 26.6 °F 57% 30.24 in 10.0 mi WNW 9.2 mph - N/A   Mostly Cloudy
2:15 AM 41.0 °F 36.4 °F 26.6 °F 57% 30.24 in 10.0 mi WNW 6.9 mph - N/A   Mostly Cloudy
2:35 AM 39.2 °F 34.2 °F 26.6 °F 61% 30.24 in 10.0 mi West 6.9 mph - N/A   Scattered Clouds
2:55 AM 41.0 °F 35.2 °F 26.6 °F 57% 30.24 in 10.0 mi West 9.2 mph - N/A   Mostly Cloudy
3:15 AM 41.0 °F 36.4 °F 26.6 °F 57% 30.24 in 10.0 mi WNW 6.9 mph - N/A   Overcast
3:35 AM 41.0 °F 35.2 °F 26.6 °F 57% 30.23 in 10.0 mi WNW 9.2 mph - N/A   Mostly Cloudy
3:55 AM 41.0 °F 34.7 °F 26.6 °F 57% 30.22 in 10.0 mi West 10.4 mph - N/A   Mostly Cloudy
4:15 AM 41.0 °F 34.7 °F 26.6 °F 57% 30.22 in 10.0 mi WNW 10.4 mph - N/A   Scattered Clouds
4:35 AM 41.0 °F 34.3 °F 26.6 °F 57% 30.22 in 10.0 mi West 11.5 mph - N/A   Clear
5:15 AM 37.4 °F 30.3 °F 26.6 °F 65% 30.22 in 10.0 mi WNW 10.4 mph - N/A   Clear
5:35 AM 37.4 °F 30.8 °F 26.6 °F 65% 30.22 in 10.0 mi WNW 9.2 mph - N/A   Clear
5:55 AM 37.4 °F 30.3 °F 26.6 °F 65% 30.22 in 10.0 mi WNW 10.4 mph - N/A   Clear
6:15 AM 37.4 °F 30.3 °F 26.6 °F 65% 30.22 in 10.0 mi WNW 10.4 mph - N/A   Clear
6:35 AM 37.4 °F 30.3 °F 26.6 °F 65% 30.23 in 10.0 mi WNW 10.4 mph - N/A   Clear
6:55 AM 37.4 °F 29.8 °F 26.6 °F 65% 30.23 in 10.0 mi WNW 11.5 mph - N/A   Clear
7:15 AM 37.4 °F 29.8 °F 26.6 °F 65% 30.23 in 10.0 mi WNW 11.5 mph - N/A   Clear
7:35 AM 35.6 °F 29.2 °F 26.6 °F 70% 30.24 in 10.0 mi WNW 8.1 mph - N/A   Clear
7:55 AM 35.6 °F 29.2 °F 26.6 °F 70% 30.24 in 10.0 mi NW 8.1 mph - N/A   Clear
8:15 AM 35.6 °F 28.6 °F 26.6 °F 70% 30.24 in 10.0 mi NW 9.2 mph - N/A   Clear
8:35 AM 35.6 °F 29.9 °F 26.6 °F 70% 30.25 in 10.0 mi NW 6.9 mph - N/A   Clear
8:55 AM 39.2 °F 33.0 °F 26.6 °F 61% 30.26 in 10.0 mi NW 9.2 mph - N/A   Clear
9:15 AM 42.8 °F 36.2 °F 26.6 °F 53% 30.27 in 10.0 mi NNW 12.7 mph - N/A   Clear
9:35 AM 42.8 °F 36.2 °F 26.6 °F 53% 30.27 in 10.0 mi NNW 12.7 mph - N/A   Clear
9:55 AM 44.6 °F 38.1 °F 26.6 °F 49% 30.27 in 10.0 mi North 13.8 mph 20.7 mph N/A   Clear
10:15 AM 46.4 °F 40.7 °F 26.6 °F 46% 30.27 in 10.0 mi North 12.7 mph - N/A   Clear
10:35 AM 50.0 °F - 26.6 °F 40% 30.27 in 10.0 mi North 10.4 mph 16.1 mph N/A   Clear
10:55 AM 50.0 °F - 24.8 °F 37% 30.27 in 10.0 mi NNE 10.4 mph - N/A   Clear
11:15 AM 51.8 °F - 24.8 °F 35% 30.27 in 10.0 mi North 9.2 mph - N/A   Clear
11:55 AM 53.6 °F - 24.8 °F 33% 30.26 in 10.0 mi North 8.1 mph 16.1 mph N/A   Clear
12:15 PM 55.4 °F - 26.6 °F 33% 30.25 in 10.0 mi North 9.2 mph - N/A   Clear
12:35 PM 55.4 °F - 24.8 °F 31% 30.24 in 10.0 mi NNE 9.2 mph - N/A   Clear
12:55 PM 55.4 °F - 24.8 °F 31% 30.23 in 10.0 mi NNW 4.6 mph - N/A   Clear
1:15 PM 57.2 °F - 24.8 °F 29% 30.22 in 10.0 mi NW 8.1 mph - N/A   Clear
1:35 PM 57.2 °F - 24.8 °F 29% 30.20 in 10.0 mi WNW 4.6 mph - N/A   Clear
1:55 PM 59.0 °F - 24.8 °F 27% 30.19 in 10.0 mi NNW 9.2 mph - N/A   Clear
2:15 PM 59.0 °F - 24.8 °F 27% 30.18 in 10.0 mi North 5.8 mph 16.1 mph N/A   Clear
2:35 PM 60.8 °F - 26.6 °F 27% 30.17 in 10.0 mi NW 5.8 mph - N/A   Clear
2:55 PM 59.0 °F - 24.8 °F 27% 30.15 in 10.0 mi WSW 3.5 mph - N/A   Clear
3:15 PM 60.8 °F - 24.8 °F 25% 30.14 in 10.0 mi North 4.6 mph - N/A   Clear
3:55 PM 60.8 °F - 24.8 °F 25% 30.12 in 10.0 mi NW 8.1 mph - N/A   Clear
4:15 PM 60.8 °F - 24.8 °F 25% 30.11 in 10.0 mi North 6.9 mph - N/A   Clear
4:35 PM 60.8 °F - 24.8 °F 25% 30.11 in 10.0 mi West 10.4 mph - N/A   Clear
4:55 PM 60.8 °F - 24.8 °F 25% 30.11 in 10.0 mi West 10.4 mph - N/A   Clear
5:15 PM 62.6 °F - 24.8 °F 24% 30.10 in 10.0 mi SW 3.5 mph - N/A   Clear
5:35 PM 62.6 °F - 24.8 °F 24% 30.10 in 10.0 mi WSW 3.5 mph - N/A   Clear
5:55 PM 60.8 °F - 24.8 °F 25% 30.10 in 10.0 mi SSW 4.6 mph - N/A   Clear
6:15 PM 60.8 °F - 24.8 °F 25% 30.09 in 10.0 mi West 4.6 mph - N/A   Clear
6:35 PM 60.8 °F - 24.8 °F 25% 30.09 in 10.0 mi WSW 5.8 mph - N/A   Clear
6:55 PM 59.0 °F - 26.6 °F 29% 30.09 in 10.0 mi SW 4.6 mph - N/A   Clear
7:15 PM 55.4 °F - 24.8 °F 31% 30.08 in 10.0 mi SSW 4.6 mph - N/A   Clear
7:35 PM 51.8 °F - 23.0 °F 33% 30.08 in 10.0 mi SSW 6.9 mph - N/A   Clear
7:55 PM 50.0 °F - 23.0 °F 35% 30.07 in 10.0 mi South 6.9 mph - N/A   Clear
8:35 PM 46.4 °F 43.5 °F 24.8 °F 43% 30.07 in 10.0 mi SSE 5.8 mph - N/A   Clear
8:55 PM 50.0 °F - 24.8 °F 37% 30.07 in 10.0 mi SE 5.8 mph - N/A   Clear
9:15 PM 50.0 °F - 24.8 °F 37% 30.06 in 10.0 mi SE 5.8 mph - N/A   Clear
9:35 PM 50.0 °F - 23.0 °F 35% 30.06 in 10.0 mi SSE 5.8 mph - N/A   Clear
9:55 PM 46.4 °F 43.5 °F 23.0 °F 40% 30.06 in 10.0 mi SSE 5.8 mph - N/A   Clear
10:15 PM 44.6 °F 41.4 °F 23.0 °F 43% 30.06 in 10.0 mi South 5.8 mph - N/A   Clear
10:35 PM 41.0 °F 35.2 °F 23.0 °F 49% 30.06 in 10.0 mi South 9.2 mph - N/A   Clear
10:55 PM 42.8 °F 38.0 °F 23.0 °F 46% 30.06 in 10.0 mi South 8.1 mph - N/A   Clear
11:15 PM 41.0 °F 38.0 °F 24.8 °F 53% 30.06 in 10.0 mi SSE 4.6 mph - N/A   Clear
11:35 PM 44.6 °F 41.4 °F 24.8 °F 46% 30.06 in 10.0 mi SSE 5.8 mph - N/A   Clear
11:55 PM 44.6 °F 41.4 °F 24.8 °F 46% 30.06 in 10.0 mi SSE 5.8 mph - N/A   Clear